ZHONGXING-2E

Last updated on Thu Nov 21 2024 00:02:44 GMT+0000 (Coordinated Universal Time)

1 49062U 21071A 24325.54938052 -.00000290 00000+0 00000+0 0 9994 2 49062 0.0137 350.4967 0002489 278.2571 87.1552 1.00270454 12287
UTC large
Height (km)
Speed (km/s)
/
Latitude / Longitude
Inclination (degrees)
Orbital Period (minutes)
Azimuth
Elevation
Range (km)
Doppler Factor

Next 0 passes for location: London (51.5072 / 0.1276)

Sorry there are no passes over London.